DW3693 Weather Reports


Display with metric or nautical units.
time (UTC)temp
F
wind
direction
speed
MPH
gust
MPH
rain 1hr
in
rain 24hr
in
rain mn
in
humidity
%
barometer
mb
20260904234022 63 270 1.0 4.0 0.00 0.01 0.01 71 1013.3
20260904233028 63 0.0 1.0 0.00 0.01 0.01 75 1013.4
20260904232019 63 0.0 1.0 0.00 0.01 0.01 73 1013.4
20260904231019 63 203 1.0 2.0 0.00 0.01 0.01 72 1013.3
20260904230024 63 248 1.0 3.0 0.00 0.01 0.01 70 1013.4
20260904225022 64 270 1.0 3.0 0.00 0.01 0.01 69 1013.3
20260904224019 64 0.0 2.0 0.00 0.01 0.01 67 1013.3
20260904223025 65 0.0 1.0 0.00 0.01 0.01 62 1013.3
20260904222022 66 225 1.0 2.0 0.00 0.01 0.01 56 1013.3
20260904221022 66 135 1.0 2.0 0.00 0.01 0.01 57 1013.2
20260904220017 66 203 1.0 2.0 0.00 0.01 0.01 61 1013.1
20260904215023 65 0.0 1.0 0.00 0.01 0.01 60 1013.2
20260904214017 65 180 1.0 2.0 0.00 0.01 0.01 61 1013.1
20260904213022 64 0.0 1.0 0.00 0.01 0.01 61 1013.0
20260904212017 64 180 1.0 1.0 0.00 0.01 0.01 62 1013.0
20260904211017 64 180 1.0 2.0 0.00 0.01 0.01 64 1013.0
20260904210016 64 0.0 2.0 0.00 0.01 0.01 65 1012.9
20260904205016 64 0.0 0.0 0.00 0.01 0.01 66 1012.9
20260904204116 64 0.0 1.0 0.00 0.01 0.01 60 1012.9
20260904203017 65 225 1.0 3.0 0.00 0.01 0.01 60 1013.0
20260904202016 64 225 1.0 3.0 0.00 0.01 0.01 59 1013.0
20260904201025 64 0.0 2.0 0.00 0.01 0.01 62 1013.1
20260904200017 63 158 1.0 3.0 0.00 0.01 0.01 64 1013.1
20260904195047 63 45 1.0 2.0 0.00 0.01 0.01 64 1013.2
20260904194028 62 45 1.0 3.0 0.00 0.01 0.01 66 1013.3
20260904193517 63 45 1.0 3.0 0.00 0.01 0.01 69 1013.4
20260904192541 62 68 1.0 3.0 0.00 0.01 0.01 69 1013.4
20260904191610 61 68 1.0 3.0 0.00 0.01 0.01 70 1013.4
20260904190555 61 68 1.0 4.0 0.00 0.01 0.01 71 1013.6
20260904185539 61 90 1.0 4.0 0.00 0.01 0.01 72 1013.7
20260904184516 59 0.0 2.0 0.00 0.01 0.01 75 1013.6
20260904183516 59 158 1.0 3.0 0.00 0.01 0.01 75 1013.7
20260904182547 58 158 1.0 2.0 0.00 0.01 0.01 77 1013.7
20260904181516 58 158 1.0 4.0 0.00 0.01 0.01 78 1013.6
20260904180516 58 203 1.0 3.0 0.00 0.01 0.01 79 1013.5
20260904175516 57 0.0 2.0 0.00 0.01 0.01 79 1013.5
20260904174516 57 0.0 2.0 0.00 0.01 0.01 79 1013.6
20260904173536 57 0.0 1.0 0.00 0.01 0.01 79 1013.6
20260904172522 57 0.0 2.0 0.00 0.01 0.01 80 1013.5
20260904171717 57 0.0 3.0 0.00 0.01 0.01 80 1013.6
20260904170522 56 225 1.0 2.0 0.00 0.01 0.01 80 1013.5
20260904165522 56 0.0 1.0 0.00 0.01 0.01 82 1013.4
20260904164610 56 180 1.0 2.0 0.00 0.01 0.01 82 1013.5
20260904163516 56 135 1.0 3.0 0.00 0.01 0.01 81 1013.4
20260904162539 55 248 1.0 3.0 0.00 0.01 0.01 82 1013.4
20260904161525 55 203 1.0 2.0 0.00 0.01 0.01 84 1013.4
20260904160516 55 0.0 0.0 0.00 0.01 0.01 85 1013.4
20260904155516 55 158 1.0 2.0 0.00 0.01 0.01 86 1013.5
20260904154522 55 158 1.0 2.0 0.00 0.01 0.01 87 1013.4
20260904153521 54 0.0 0.0 0.00 0.01 0.01 91 1013.4
20260904152516 54 0.0 0.0 0.00 0.01 0.01 93 1013.3
20260904151515 53 0.0 0.0 0.00 0.01 0.01 93 1013.3
20260904150516 53 0.0 0.0 0.00 0.01 0.01 93 1013.2
20260904145522 53 0.0 0.0 0.00 0.01 0.01 93 1013.1
20260904144536 52 0.0 0.0 0.00 0.01 0.01 93 1013.1
20260904143515 52 0.0 0.0 0.00 0.01 0.01 94 1012.9
20260904142516 51 0.0 0.0 0.01 0.01 0.01 94 1012.8
20260904141517 51 0.0 0.0 0.01 0.01 0.01 94 1012.7
20260904140555 51 0.0 0.0 0.01 0.01 0.01 94 1012.6
20260904135603 51 0.0 0.0 0.01 0.01 0.01 94 1012.5
20260904134521 50 0.0 0.0 0.01 0.01 0.01 94 1012.5
20260904133517 50 0.0 0.0 0.01 0.01 0.01 94 1012.4
20260904132523 50 0.0 0.0 0.00 0.00 0.00 93 1012.3
20260904131521 50 0.0 0.0 0.00 0.00 0.00 93 1012.2
20260904130522 50 0.0 0.0 0.00 0.00 0.00 93 1012.2
20260904125542 50 0.0 0.0 0.00 0.00 0.00 93 1012.1
20260904124517 50 0.0 0.0 0.00 0.00 0.00 93 1012.0
20260904123511 50 0.0 0.0 0.00 0.00 0.00 93 1011.9
20260904122125 50 0.0 0.0 0.00 0.00 0.00 93 1012.1
20260904121022 50 0.0 0.0 0.00 0.00 0.00 93 1011.7
20260904120048 50 0.0 0.0 0.00 0.00 0.00 93 1011.7
20260904115155 51 0.0 0.0 0.00 0.00 0.00 93 1011.7
20260904114021 51 0.0 0.0 0.00 0.00 0.00 93 1011.6
20260904113017 51 0.0 0.0 0.00 0.00 0.00 93 1011.5
20260904112017 51 0.0 0.0 0.00 0.00 0.00 93 1011.5
20260904111022 51 0.0 0.0 0.00 0.00 0.00 93 1011.4
20260904110047 51 0.0 0.0 0.00 0.00 0.00 93 1011.4
20260904105023 51 0.0 0.0 0.00 0.00 0.00 93 1011.2
20260904104105 51 0.0 0.0 0.00 0.00 0.00 93 1011.3
20260904103022 51 0.0 0.0 0.00 0.00 0.00 93 1011.2
20260904102023 50 0.0 0.0 0.00 0.00 0.00 93 1011.1
20260904101022 50 0.0 0.0 0.00 0.00 0.00 92 1011.0
20260904100016 50 0.0 0.0 0.00 0.00 0.00 92 1010.8
20260904095048 50 0.0 0.0 0.00 0.00 0.00 92 1010.8
20260904094017 50 0.0 0.0 0.00 0.00 0.00 93 1010.7
20260904093037 50 0.0 0.0 0.00 0.00 0.00 92 1010.9
20260904092018 50 0.0 0.0 0.00 0.00 0.00 92 1010.8
20260904091016 50 0.0 0.0 0.00 0.00 0.00 92 1010.8
20260904090016 50 0.0 0.0 0.00 0.00 0.00 92 1010.9
20260904085207 50 0.0 0.0 0.00 0.00 0.00 92 1010.7
20260904084023 50 0.0 0.0 0.00 0.00 0.00 92 1010.9
20260904083017 50 0.0 0.0 0.00 0.00 0.00 92 1010.5
20260904082036 51 0.0 0.0 0.00 0.00 0.00 91 1010.4
20260904081136 51 0.0 0.0 0.00 0.01 0.00 91 1010.4
20260904080016 51 0.0 0.0 0.00 0.01 0.00 91 1010.4
20260904075022 51 0.0 0.0 0.00 0.01 0.00 91 1010.5
20260904074022 51 0.0 0.0 0.00 0.01 0.00 91 1010.4
20260904073027 51 0.0 0.0 0.00 0.01 0.00 91 1010.5
20260904072136 51 0.0 0.0 0.00 0.01 0.00 91 1010.4
20260904071020 51 0.0 0.0 0.00 0.01 0.00 91 1010.4
20260904070015 51 0.0 0.0 0.00 0.01 0.01 91 1010.3
20260904065016 52 0.0 0.0 0.00 0.01 0.01 91 1010.2
20260904064022 52 0.0 0.0 0.00 0.01 0.01 91 1010.3
20260904063016 52 0.0 0.0 0.00 0.01 0.01 90 1010.3
20260904062022 52 0.0 0.0 0.00 0.01 0.01 90 1010.2
20260904061016 53 0.0 0.0 0.00 0.01 0.01 89 1010.3
20260904060016 53 0.0 0.0 0.00 0.01 0.01 89 1010.1
20260904055022 53 0.0 0.0 0.00 0.01 0.01 88 1010.2
20260904054037 53 0.0 0.0 0.00 0.01 0.01 87 1010.1
20260904053036 54 0.0 0.0 0.00 0.01 0.01 87 1010.1
20260904052022 54 0.0 0.0 0.00 0.01 0.01 86 1010.1
20260904051016 55 0.0 0.0 0.00 0.01 0.01 85 1010.2
20260904050041 54 0.0 0.0 0.00 0.01 0.01 86 1010.1
20260904045016 54 0.0 0.0 0.00 0.01 0.01 86 1010.3
20260904044016 54 0.0 0.0 0.00 0.01 0.01 85 1010.2
20260904043036 55 0.0 0.0 0.00 0.01 0.01 85 1010.1
20260904042017 55 0.0 0.0 0.00 0.01 0.01 83 1010.1
20260904041017 56 0.0 1.0 0.00 0.01 0.01 81 1010.2
20260904040021 56 0.0 0.0 0.00 0.01 0.01 81 1010.2
20260904035150 56 0.0 1.0 0.00 0.01 0.01 80 1010.3
20260904034016 57 0.0 0.0 0.00 0.01 0.01 80 1010.2
20260904033022 57 270 1.0 2.0 0.00 0.01 0.01 80 1010.1
20260904032018 57 248 1.0 6.0 0.00 0.01 0.01 80 1009.9
20260904031022 57 270 1.0 3.0 0.00 0.01 0.01 81 1009.7
20260904025147 57 270 2.0 4.0 0.00 0.01 0.01 80 1009.7
20260904024030 58 248 1.0 9.0 0.00 0.01 0.01 81 1009.4
20260904023046 58 248 3.0 7.0 0.00 0.01 0.01 80 1009.3
20260904022047 58 270 3.0 6.0 0.00 0.01 0.01 80 1009.2
20260904021022 58 248 2.0 8.0 0.00 0.01 0.01 81 1009.3
20260904020020 58 293 3.0 7.0 0.00 0.03 0.01 80 1009.3
20260904015120 58 270 2.0 10.0 0.00 0.09 0.01 80 1009.3
20260904014121 58 248 3.0 11.0 0.00 0.09 0.01 79 1009.3
20260904013021 59 248 3.0 8.0 0.00 0.09 0.01 77 1009.2
20260904012046 59 270 3.0 10.0 0.00 0.09 0.01 76 1009.4
20260904011017 59 0.0 0.0 0.00 0.09 0.01 75 1009.3
20260904010017 60 0.0 1.0 0.00 0.10 0.01 75 1009.4
20260904005022 60 0.0 1.0 0.00 0.10 0.01 74 1009.3
20260904004017 61 270 2.0 6.0 0.00 0.11 0.01 73 1009.3
20260904003017 61 0 2.0 11.0 0.00 0.11 0.01 73 1009.3
20260904002034 61 180 1.0 3.0 0.00 0.11 0.01 73 1009.2
20260904001022 61 270 3.0 7.0 0.00 0.12 0.01 73 1009.3
20260904000017 62 225 1.0 7.0 0.00 0.13 0.01 79 1009.2
20260903235017 59 270 3.0 9.0 0.00 0.14 0.01 80 1009.2